| time (UTC) | temp C | wind direction | speed KPH | gust KPH | rain 1hr cm | rain 24hr cm | rain mn cm | humidity % | barometer mb |
| 20260506161501 | 20 | 219 | 8.0 | 9.7 | 0.00 | 0.00 | 0.00 | 62 | 996.2 |
| 20260506160002 | 21 | 126 | 4.8 | 6.4 | 0.00 | 0.00 | 0.00 | 59 | 996.2 |
| 20260506154501 | 21 | 191 | 6.4 | 6.4 | 0.00 | 0.00 | 0.00 | 58 | 996.2 |
| 20260506153001 | 21 | 139 | 3.2 | 3.2 | 0.00 | 0.00 | 0.00 | 57 | 996.2 |
| 20260506151502 | 20 | 203 | 8.0 | 8.0 | 0.00 | 0.00 | 0.00 | 61 | 996.2 |
| 20260506150002 | 20 | 227 | 4.8 | 6.4 | 0.00 | 0.00 | 0.00 | 60 | 996.2 |
| 20260506144501 | 20 | 161 | 1.6 | 4.8 | 0.00 | 0.00 | 0.00 | 60 | 996.2 |
| 20260506143002 | 20 | 146 | 9.7 | 9.7 | 0.00 | 0.00 | 0.00 | 59 | 996.2 |
| 20260506141501 | 20 | 227 | 8.0 | 8.0 | 0.00 | 0.00 | 0.00 | 60 | 996.2 |
| 20260506140001 | 20 | 176 | 6.4 | 6.4 | 0.00 | 0.00 | 0.00 | 61 | 996.6 |
| 20260506134501 | 20 | 152 | 3.2 | 8.0 | 0.00 | 0.00 | 0.00 | 61 | 996.6 |
| 20260506133001 | 20 | 195 | 9.7 | 9.7 | 0.00 | 0.00 | 0.00 | 62 | 996.6 |
| 20260506131502 | 18 | 219 | 4.8 | 8.0 | 0.00 | 0.00 | 0.00 | 62 | 996.6 |
| 20260506130001 | 18 | 166 | 4.8 | 9.7 | 0.00 | 0.00 | 0.00 | 63 | 996.6 |
| 20260506124501 | 20 | 186 | 3.2 | 4.8 | 0.00 | 0.00 | 0.00 | 61 | 996.6 |
| 20260506123002 | 18 | 160 | 11.3 | 17.7 | 0.00 | 0.00 | 0.00 | 62 | 996.9 |
| 20260506121500 | 18 | 192 | 6.4 | 9.7 | 0.00 | 0.00 | 0.00 | 61 | 996.6 |
| 20260506120001 | 20 | 201 | 8.0 | 12.9 | 0.00 | 0.00 | 0.00 | 59 | 996.9 |
| 20260506114502 | 18 | 245 | 8.0 | 12.9 | 0.00 | 0.00 | 0.00 | 63 | 996.6 |
| 20260506113001 | 18 | 188 | 4.8 | 12.9 | 0.00 | 0.00 | 0.00 | 63 | 996.6 |
| 20260506111502 | 18 | 208 | 6.4 | 20.9 | 0.00 | 0.00 | 0.00 | 61 | 996.2 |
| 20260506110001 | 20 | 223 | 16.1 | 20.9 | 0.00 | 0.00 | 0.00 | 61 | 996.2 |
| 20260506104502 | 20 | 214 | 4.8 | 9.7 | 0.00 | 0.00 | 0.00 | 62 | 996.2 |
| 20260506103001 | 18 | 154 | 9.7 | 14.5 | 0.00 | 0.00 | 0.00 | 61 | 996.2 |
| 20260506101502 | 20 | 196 | 4.8 | 9.7 | 0.00 | 0.00 | 0.00 | 61 | 995.6 |
| 20260506100003 | 18 | 201 | 9.7 | 11.3 | 0.00 | 0.00 | 0.00 | 61 | 995.6 |
| 20260506094501 | 18 | 170 | 1.6 | 3.2 | 0.00 | 0.00 | 0.00 | 61 | 995.6 |
| 20260506093001 | 17 | 251 | 6.4 | 6.4 | 0.00 | 0.00 | 0.00 | 62 | 995.6 |
| 20260506091502 | 17 | 185 | 4.8 | 4.8 | 0.00 | 0.00 | 0.00 | 63 | 995.6 |
| 20260506090002 | 16 | 166 | 4.8 | 4.8 | 0.00 | 0.00 | 0.00 | 66 | 995.6 |
| 20260506084502 | 16 | 138 | 3.2 | 4.8 | 0.00 | 0.00 | 0.00 | 67 | 995.2 |
| 20260506083002 | 16 | 189 | 3.2 | 3.2 | 0.00 | 0.00 | 0.00 | 63 | 995.2 |
| 20260506081501 | 16 | 199 | 6.4 | 6.4 | 0.00 | 0.00 | 0.00 | 65 | 995.2 |
| 20260506073001 | 16 | 108 | 0.0 | 0.0 | 0.00 | 0.00 | 0.00 | 65 | 995.2 |
| 20260506071501 | 16 | 167 | 1.6 | 3.2 | 0.00 | 0.00 | 0.00 | 66 | 994.9 |
| 20260506061501 | 13 | 69 | 1.6 | 1.6 | 0.00 | 0.00 | 0.00 | 78 | 995.6 |
| 20260506044501 | 10 | 83 | 4.8 | 6.4 | 0.00 | 0.00 | 0.00 | 90 | 996.2 |
| 20260506043002 | 10 | 89 | 4.8 | 6.4 | 0.00 | 0.00 | 0.00 | 92 | 996.6 |
| 20260506041503 | 10 | 49 | 1.6 | 1.6 | 0.00 | 0.00 | 0.00 | 94 | 996.9 |
| 20260506040004 | 10 | 89 | 3.2 | 6.4 | 0.00 | 0.00 | 0.00 | 96 | 997.2 |
| 20260506034502 | 10 | 90 | 3.2 | 3.2 | 0.00 | 0.00 | 0.00 | 96 | 997.2 |
| 20260506033002 | 10 | 70 | 1.6 | 3.2 | 0.00 | 0.00 | 0.00 | 97 | 997.2 |
| 20260506031501 | 10 | 81 | 1.6 | 1.6 | 0.00 | 0.00 | 0.00 | 97 | 997.2 |
| 20260506030001 | 10 | 75 | 1.6 | 3.2 | 0.00 | 0.00 | 0.00 | 97 | 997.2 |
| 20260506024501 | 10 | 81 | 1.6 | 3.2 | 0.00 | 0.00 | 0.00 | 96 | 997.2 |
| 20260506023002 | 10 | 91 | 0.0 | 0.0 | 0.00 | 0.00 | 0.00 | 96 | 997.2 |
| 20260506021502 | 10 | 78 | 3.2 | 3.2 | 0.00 | 0.00 | 0.00 | 95 | 997.2 |
| 20260506020001 | 10 | 82 | 3.2 | 3.2 | 0.00 | 0.00 | 0.00 | 95 | 997.6 |
| 20260506014501 | 10 | 37 | 4.8 | 4.8 | 0.00 | 0.00 | 0.00 | 94 | 997.6 |
| 20260506013001 | 10 | 102 | 3.2 | 4.8 | 0.00 | 0.00 | 0.00 | 94 | 997.6 |
| 20260506011501 | 10 | 83 | 4.8 | 4.8 | 0.00 | 0.00 | 0.00 | 94 | 997.9 |
| 20260506010001 | 10 | 88 | 3.2 | 8.0 | 0.00 | 0.00 | 0.00 | 94 | 998.3 |
| 20260506004503 | 10 | 41 | 3.2 | 4.8 | 0.00 | 0.00 | 0.00 | 94 | 997.9 |
| 20260506003002 | 10 | 80 | 1.6 | 4.8 | 0.00 | 0.00 | 0.00 | 95 | 997.9 |
| 20260506001502 | 10 | 39 | 3.2 | 4.8 | 0.00 | 0.00 | 0.00 | 95 | 998.3 |
| 20260506000002 | 10 | 86 | 1.6 | 4.8 | 0.00 | 0.00 | 0.00 | 95 | 998.9 |
| 20260505234501 | 10 | 34 | 6.4 | 6.4 | 0.00 | 0.00 | 0.00 | 95 | 998.9 |
| 20260505233001 | 10 | 31 | 3.2 | 4.8 | 0.00 | 0.00 | 0.00 | 95 | 998.9 |
| 20260505231501 | 10 | 33 | 1.6 | 3.2 | 0.00 | 0.00 | 0.00 | 94 | 998.9 |
| 20260505230000 | 10 | 353 | 1.6 | 3.2 | 0.00 | 0.00 | 0.00 | 93 | 998.9 |
| 20260505224502 | 10 | 74 | 3.2 | 3.2 | 0.00 | 0.00 | 0.00 | 93 | 998.9 |
| 20260505223001 | 10 | 102 | 1.6 | 1.6 | 0.00 | 0.00 | 0.00 | 92 | 998.9 |
| 20260505221501 | 10 | 65 | 1.6 | 1.6 | 0.00 | 0.00 | 0.00 | 91 | 998.9 |
| 20260505220002 | 10 | 92 | 3.2 | 4.8 | 0.00 | 0.00 | 0.00 | 91 | 998.9 |
| 20260505214501 | 10 | 101 | 1.6 | 4.8 | 0.00 | 0.00 | 0.00 | 90 | 998.9 |
| 20260505213001 | 10 | 67 | 3.2 | 3.2 | 0.00 | 0.00 | 0.00 | 91 | 998.9 |
| 20260505211501 | 11 | 20 | 1.6 | 1.6 | 0.00 | 0.00 | 0.00 | 91 | 998.9 |
| 20260505210001 | 11 | 66 | 1.6 | 3.2 | 0.00 | 0.00 | 0.00 | 91 | 999.3 |
| 20260505204502 | 11 | 83 | 1.6 | 3.2 | 0.00 | 0.00 | 0.00 | 90 | 999.3 |
| 20260505203001 | 11 | 52 | 1.6 | 4.8 | 0.00 | 0.00 | 0.00 | 88 | 999.6 |
| 20260505201607 | 11 | 85 | 1.6 | 1.6 | 0.00 | 0.00 | 0.00 | 87 | 999.6 |
| 20260505200003 | 12 | 79 | 3.2 | 4.8 | 0.00 | 0.00 | 0.00 | 84 | 999.6 |
| 20260505194501 | 12 | 95 | 4.8 | 4.8 | 0.00 | 0.00 | 0.00 | 81 | 999.6 |
| 20260505193001 | 12 | 36 | 3.2 | 4.8 | 0.00 | 0.00 | 0.00 | 78 | 999.3 |
| 20260505191501 | 12 | 73 | 1.6 | 1.6 | 0.00 | 0.00 | 0.00 | 77 | 999.6 |
| 20260505190001 | 12 | 94 | 1.6 | 4.8 | 0.00 | 0.00 | 0.00 | 77 | 999.3 |
| 20260505184501 | 13 | 67 | 4.8 | 4.8 | 0.00 | 0.00 | 0.00 | 77 | 999.3 |
| 20260505183002 | 13 | 32 | 1.6 | 1.6 | 0.00 | 0.00 | 0.00 | 77 | 999.3 |
| 20260505181501 | 13 | 96 | 4.8 | 6.4 | 0.00 | 0.00 | 0.00 | 76 | 998.9 |
| 20260505180001 | 13 | 70 | 1.6 | 4.8 | 0.00 | 0.00 | 0.00 | 75 | 998.9 |
| 20260505174501 | 13 | 100 | 3.2 | 4.8 | 0.00 | 0.00 | 0.00 | 73 | 998.9 |
| 20260505173001 | 15 | 103 | 3.2 | 4.8 | 0.00 | 0.00 | 0.00 | 72 | 998.9 |
| 20260505171502 | 15 | 29 | 4.8 | 6.4 | 0.00 | 0.00 | 0.00 | 68 | 998.9 |
| 20260505170001 | 15 | 25 | 3.2 | 4.8 | 0.00 | 0.00 | 0.00 | 67 | 998.9 |
| 20260505164501 | 15 | 29 | 8.0 | 8.0 | 0.00 | 0.00 | 0.00 | 65 | 998.9 |
| 20260505163001 | 15 | 29 | 6.4 | 9.7 | 0.00 | 0.00 | 0.00 | 66 | 998.9 |